• In Deutschland
  • Länderverzeichnis
  • Für 7 Tage
  • Wassertemperatur
  • Satellitenkarten
  • Wetterkarte
  • Widgets
  • user-avatar
    Anmelden

    Stündliche Wetter Kuiaba

    Heute, 19 Oktober, Freitag

    Zeit Temperatur Niederschläge Wind Luftdruck Luftfeuchtigkeit
    00:00 +26°C° 0 mm 1 m/S 738 mmHg 80%
    01:00 +26°C° 0 mm 1 m/S 738 mmHg 80%
    02:00 +26°C° 0 mm 1 m/S 738 mmHg 80%
    03:00 +26°C° 0.2 mm 1 m/S 738 mmHg 81%
    04:00 +26°C° 0.2 mm 1 m/S 738 mmHg 82%
    05:00 +23°C° 0.2 mm 0 m/S 738 mmHg 83%
    06:00 +25°C° 0.1 mm 0 m/S 738 mmHg 76%
    07:00 +27°C° 0.1 mm 0 m/S 739 mmHg 69%
    08:00 +29°C° 0.1 mm 0 m/S 739 mmHg 63%
    09:00 +30°C° 0.2 mm 0 m/S 739 mmHg 59%
    10:00 +33°C° 0.2 mm 1 m/S 739 mmHg 55%
    11:00 +35°C° 0.2 mm 2 m/S 739 mmHg 51%
    12:00 +36°C° 0 mm 2 m/S 738 mmHg 49%
    13:00 +36°C° 0 mm 2 m/S 738 mmHg 47%
    14:00 +37°C° 0 mm 2 m/S 737 mmHg 45%
    15:00 +36°C° 0 mm 2 m/S 737 mmHg 48%
    16:00 +34°C° 0 mm 1 m/S 736 mmHg 51%
    17:00 +33°C° 0 mm 1 m/S 736 mmHg 54%
    18:00 +32°C° 0 mm 1 m/S 736 mmHg 58%
    19:00 +31°C° 0 mm 1 m/S 737 mmHg 61%
    20:00 +30°C° 0 mm 1 m/S 737 mmHg 64%
    21:00 +29°C° 0 mm 1 m/S 737 mmHg 65%
    22:00 +29°C° 0 mm 1 m/S 737 mmHg 66%
    23:00 +28°C° 0 mm 1 m/S 737 mmHg 67%

    Morgen, 20 Oktober, Samstag

    Zeit Temperatur Niederschläge Wind Luftdruck Luftfeuchtigkeit
    00:00 +28°C° 0.1 mm 1 m/S 737 mmHg 69%
    01:00 +28°C° 0.1 mm 1 m/S 737 mmHg 70%
    02:00 +27°C° 0.1 mm 1 m/S 737 mmHg 72%
    03:00 +27°C° 0 mm 1 m/S 737 mmHg 73%
    04:00 +27°C° 0 mm 1 m/S 737 mmHg 73%
    05:00 +27°C° 0 mm 1 m/S 737 mmHg 74%
    06:00 +28°C° 0 mm 1 m/S 738 mmHg 70%
    07:00 +27°C° 0 mm 0 m/S 738 mmHg 67%
    08:00 +28°C° 0 mm 0 m/S 739 mmHg 63%
    09:00 +30°C° 0 mm 0 m/S 739 mmHg 57%
    10:00 +32°C° 0 mm 0 m/S 738 mmHg 51%
    11:00 +36°C° 0 mm 1 m/S 738 mmHg 46%
    12:00 +35°C° 0 mm 0 m/S 737 mmHg 43%
    13:00 +35°C° 0 mm 0 m/S 736 mmHg 41%
    14:00 +36°C° 0 mm 0 m/S 736 mmHg 39%
    15:00 +35°C° 0 mm 0 m/S 736 mmHg 42%
    16:00 +36°C° 0 mm 1 m/S 735 mmHg 45%
    17:00 +35°C° 0 mm 1 m/S 735 mmHg 48%
    18:00 +33°C° 0.3 mm 1 m/S 735 mmHg 53%
    19:00 +32°C° 0.3 mm 1 m/S 735 mmHg 58%
    20:00 +30°C° 0.3 mm 1 m/S 736 mmHg 63%
    21:00 +29°C° 0.2 mm 1 m/S 736 mmHg 67%
    22:00 +29°C° 0.2 mm 1 m/S 736 mmHg 71%
    23:00 +28°C° 0.2 mm 1 m/S 737 mmHg 74%

    übermorgen, 21 Oktober, Sonntag

    Zeit Temperatur Niederschläge Wind Luftdruck Luftfeuchtigkeit
    00:00 +28°C° 0.3 mm 1 m/S 736 mmHg 77%
    01:00 +27°C° 0.3 mm 1 m/S 736 mmHg 80%
    02:00 +25°C° 0.3 mm 0 m/S 736 mmHg 83%
    03:00 +25°C° 0 mm 0 m/S 736 mmHg 84%
    04:00 +25°C° 0 mm 0 m/S 736 mmHg 84%
    05:00 +25°C° 0 mm 0 m/S 736 mmHg 85%
    06:00 +26°C° 0 mm 0 m/S 737 mmHg 80%
    07:00 +27°C° 0 mm 0 m/S 738 mmHg 75%
    08:00 +28°C° 0 mm 0 m/S 738 mmHg 70%
    09:00 +32°C° 0.2 mm 1 m/S 738 mmHg 63%
    10:00 +34°C° 0.2 mm 1 m/S 738 mmHg 55%
    11:00 +36°C° 0.2 mm 1 m/S 738 mmHg 48%
    12:00 +36°C° 0 mm 1 m/S 737 mmHg 46%
    13:00 +38°C° 0 mm 2 m/S 736 mmHg 44%
    14:00 +38°C° 0 mm 2 m/S 736 mmHg 42%
    15:00 +37°C° 0 mm 2 m/S 736 mmHg 46%
    16:00 +36°C° 0 mm 2 m/S 735 mmHg 49%
    17:00 +35°C° 0 mm 2 m/S 735 mmHg 53%
    18:00 +32°C° 0.3 mm 2 m/S 736 mmHg 59%
    19:00 +31°C° 0.3 mm 2 m/S 736 mmHg 65%
    20:00 +29°C° 0.3 mm 2 m/S 737 mmHg 70%
    21:00 +28°C° 0.6 mm 1 m/S 737 mmHg 75%
    22:00 +28°C° 0.6 mm 1 m/S 737 mmHg 79%
    23:00 +27°C° 0.6 mm 1 m/S 737 mmHg 83%

    22 Oktober, Montag

    Zeit Temperatur Niederschläge Wind Luftdruck Luftfeuchtigkeit
    00:00 +27°C° 0 mm 1 m/S 736 mmHg 84%
    01:00 +27°C° 0 mm 1 m/S 736 mmHg 84%
    02:00 +27°C° 0 mm 1 m/S 736 mmHg 84%
    03:00 +27°C° 0 mm 1 m/S 736 mmHg 84%
    04:00 +27°C° 0 mm 1 m/S 737 mmHg 85%
    05:00 +26°C° 0 mm 1 m/S 737 mmHg 85%
    06:00 +28°C° 0.1 mm 1 m/S 738 mmHg 79%
    07:00 +30°C° 0.1 mm 1 m/S 738 mmHg 72%
    08:00 +32°C° 0.1 mm 1 m/S 739 mmHg 65%
    09:00 +34°C° 0 mm 1 m/S 739 mmHg 57%
    10:00 +37°C° 0 mm 2 m/S 739 mmHg 49%
    11:00 +38°C° 0 mm 2 m/S 738 mmHg 42%
    12:00 +38°C° 0 mm 2 m/S 738 mmHg 41%
    13:00 +38°C° 0 mm 2 m/S 737 mmHg 41%
    14:00 +38°C° 0 mm 2 m/S 736 mmHg 40%
    15:00 +37°C° 0.1 mm 2 m/S 736 mmHg 45%
    16:00 +36°C° 0.1 mm 2 m/S 736 mmHg 49%
    17:00 +34°C° 0.1 mm 2 m/S 736 mmHg 53%
    18:00 +32°C° 0.3 mm 2 m/S 736 mmHg 59%
    19:00 +31°C° 0.3 mm 2 m/S 737 mmHg 64%
    20:00 +29°C° 0.3 mm 2 m/S 737 mmHg 69%
    21:00 +29°C° 0.3 mm 2 m/S 738 mmHg 73%
    22:00 +28°C° 0.3 mm 2 m/S 738 mmHg 76%
    23:00 +28°C° 0.3 mm 2 m/S 738 mmHg 79%

    23 Oktober, Dienstag

    Zeit Temperatur Niederschläge Wind Luftdruck Luftfeuchtigkeit
    00:00 +27°C° 0 mm 2 m/S 738 mmHg 79%
    01:00 +27°C° 0 mm 2 m/S 738 mmHg 80%
    02:00 +27°C° 0 mm 2 m/S 738 mmHg 80%
    03:00 +27°C° 0.3 mm 2 m/S 738 mmHg 81%
    04:00 +26°C° 0.3 mm 2 m/S 738 mmHg 81%
    05:00 +26°C° 0.3 mm 2 m/S 738 mmHg 82%
    06:00 +27°C° 0.1 mm 3 m/S 739 mmHg 78%
    07:00 +28°C° 0.1 mm 3 m/S 740 mmHg 73%
    08:00 +29°C° 0.1 mm 3 m/S 740 mmHg 69%
    09:00 +30°C° 0 mm 3 m/S 740 mmHg 64%
    10:00 +33°C° 0 mm 4 m/S 740 mmHg 58%
    11:00 +34°C° 0 mm 4 m/S 740 mmHg 53%
    12:00 +35°C° 0 mm 3 m/S 739 mmHg 50%
    13:00 +35°C° 0 mm 3 m/S 738 mmHg 47%
    14:00 +36°C° 0 mm 3 m/S 738 mmHg 44%
    15:00 +35°C° 0 mm 3 m/S 738 mmHg 47%
    16:00 +34°C° 0 mm 3 m/S 738 mmHg 51%
    17:00 +34°C° 0 mm 2 m/S 737 mmHg 54%
    18:00 +31°C° 0 mm 2 m/S 738 mmHg 56%
    19:00 +30°C° 0 mm 2 m/S 738 mmHg 59%
    20:00 +29°C° 0 mm 2 m/S 739 mmHg 62%
    21:00 +29°C° 0 mm 2 m/S 739 mmHg 63%
    22:00 +28°C° 0 mm 2 m/S 738 mmHg 64%
    23:00 +28°C° 0 mm 1 m/S 738 mmHg 65%

    24 Oktober, Mittwoch

    Zeit Temperatur Niederschläge Wind Luftdruck Luftfeuchtigkeit
    00:00 +28°C° 0 mm 1 m/S 738 mmHg 66%
    01:00 +27°C° 0 mm 1 m/S 738 mmHg 67%
    02:00 +27°C° 0 mm 1 m/S 737 mmHg 67%
    03:00 +27°C° 0 mm 1 m/S 738 mmHg 68%
    04:00 +27°C° 0 mm 1 m/S 738 mmHg 68%
    05:00 +27°C° 0 mm 1 m/S 738 mmHg 68%
    06:00 +29°C° 0 mm 1 m/S 739 mmHg 63%
    07:00 +30°C° 0 mm 2 m/S 739 mmHg 58%
    08:00 +32°C° 0 mm 2 m/S 740 mmHg 53%
    09:00 +35°C° 0 mm 2 m/S 739 mmHg 47%
    10:00 +37°C° 0 mm 2 m/S 739 mmHg 40%
    11:00 +39°C° 0 mm 2 m/S 739 mmHg 34%
    12:00 +39°C° 0 mm 2 m/S 738 mmHg 35%
    13:00 +38°C° 0 mm 2 m/S 737 mmHg 36%
    14:00 +37°C° 0 mm 1 m/S 736 mmHg 37%
    15:00 +36°C° 0.1 mm 1 m/S 736 mmHg 40%
    16:00 +36°C° 0.1 mm 1 m/S 736 mmHg 42%
    17:00 +35°C° 0.1 mm 1 m/S 736 mmHg 44%
    18:00 +34°C° 0.4 mm 2 m/S 736 mmHg 53%
    19:00 +31°C° 0.4 mm 2 m/S 737 mmHg 62%
    20:00 +29°C° 0.4 mm 3 m/S 738 mmHg 71%
    21:00 +28°C° 0.1 mm 2 m/S 738 mmHg 75%
    22:00 +28°C° 0.1 mm 1 m/S 738 mmHg 78%
    23:00 +27°C° 0.1 mm 1 m/S 738 mmHg 81%
    Mehr zeigen